الكل
Billabong Stn Airport YBST حالة الطقس
There is no TAF data available at YBST or any nearby airports.
There is no METAR data available at YBST. Showing METAR data for YWWL (23 mi جنوبي غربي).
محفوظات أحدث تقرير روتيني عن حالة الطقس من أجل الطيران (الميتار) WWY ( لا توجد بيانات لـYBST)
| Date | Time (AEST) | Flight Rules | Wind Dir. | Speed | Type | Height AGL (ft) | Visibility | Temp (°C) | Temp (°F) | Dew Point (°C) | Dew Point (°F) | Rel. Humid. | Pressure | Density Altitude | Remarks |
|---|---|---|---|---|---|---|---|---|---|---|---|---|---|---|---|
| gap in available data | |||||||||||||||
| 08-ماي | 22:00 | n/a | 290° | 5 kt | Missing | 11° | 51° | 7° | 44° | 76% | 1025 mb | 31 ft | |||
| 08-ماي | 21:00 | n/a | 250° | 5 kt | Missing | 9° | 48° | 6° | 42° | 81% | 1024 mb | -180 ft | |||
| 08-ماي | 20:00 | n/a | 290° | 4 kt | Missing | 9° | 48° | 6° | 42° | 81% | 1024 mb | -180 ft | |||
| 08-ماي | 19:00 | n/a | 240° | 5 kt | Missing | 12° | 53° | 6° | 42° | 67% | 1024 mb | 180 ft | |||
| 08-ماي | 18:00 | n/a | 230° | 8 kt | Missing | 13° | 55° | 6° | 42° | 62% | 1023 mb | 330 ft | |||
| 08-ماي | 17:00 | n/a | 230° | 10 kt | Missing | 15° | 59° | 7° | 44° | 59% | 1023 mb | 570 ft | |||
| 08-ماي | 16:00 | n/a | 250° | 13 kt | Missing | 16° | 60° | 8° | 46° | 59% | 1023 mb | 690 ft | |||
| 08-ماي | 15:00 | n/a | 250° | 14 kt | Missing | 16° | 60° | 8° | 46° | 59% | 1022 mb | 719 ft | |||
| 08-ماي | 14:00 | n/a | 250° | 15 kt | Missing | 15° | 59° | 8° | 46° | 63% | 1023 mb | 570 ft | |||
| 08-ماي | 13:00 | n/a | 250° | 15 kt | Missing | 15° | 59° | 8° | 46° | 63% | 1023 mb | 570 ft | |||
| 08-ماي | 12:00 | n/a | 250° | 16 kt | Missing | 15° | 59° | 8° | 46° | 63% | 1024 mb | 540 ft | |||
| 08-ماي | 11:00 | n/a | 260° | 14 kt | Missing | 14° | 57° | 7° | 44° | 63% | 1024 mb | 420 ft | |||
| 08-ماي | 10:00 | n/a | 270° | 11 kt | Missing | 12° | 53° | 7° | 44° | 71% | 1024 mb | 180 ft | |||
| 08-ماي | 09:00 | n/a | 260° | 11 kt | Missing | 11° | 51° | 7° | 44° | 76% | 1025 mb | 31 ft | |||
| 08-ماي | 08:00 | n/a | 260° | 8 kt | Missing | 9° | 48° | 5° | 41° | 76% | 1024 mb | -180 ft | |||
| 08-ماي | 07:00 | n/a | 260° | 7 kt | Missing | 8° | 46° | 4° | 39° | 76% | 1024 mb | -300 ft | |||
| 08-ماي | 06:00 | n/a | 260° | 12 kt | Missing | 7° | 44° | 4° | 39° | 81% | 1023 mb | -390 ft | |||
| 08-ماي | 05:00 | n/a | 270° | 11 kt | Missing | 7° | 44° | 3° | 37° | 76% | 1023 mb | -390 ft | |||
| 08-ماي | 04:00 | n/a | 260° | 10 kt | Missing | 8° | 46° | 3° | 37° | 71% | 1023 mb | -270 ft | |||
| 08-ماي | 03:00 | n/a | 260° | 11 kt | Missing | 8° | 46° | 3° | 37° | 71% | 1023 mb | -270 ft | |||
| 08-ماي | 02:00 | n/a | 270° | 10 kt | Missing | 8° | 46° | 2° | 35° | 66% | 1024 mb | -300 ft | |||
| 08-ماي | 01:00 | n/a | 280° | 7 kt | Missing | 7° | 44° | 2° | 35° | 70% | 1024 mb | -420 ft | |||
| 08-ماي | 00:00 | n/a | 280° | 7 kt | Missing | 6° | 42° | 1° | 33° | 70% | 1024 mb | -540 ft | |||
| 07-ماي | 23:00 | n/a | 260° | 7 kt | Missing | 7° | 44° | 1° | 33° | 66% | 1024 mb | -420 ft | |||
تسجيل الدخول
| مُتصفحك غير مُدعَّم. قم بترقية متصفحك |
